Location: Baturyn
(53.6332°N, 113.5041°W)
Time: 17:41:31
(UTC+00:00)

N. Korean satellite - Pass Details

Date: 07 December 2021
Orbit: 446 x 492 km, 97.3° (Epoch: 16 January)

Event Time Altitude Azimuth Distance (km) Brightness Sun altitude
Rises 12:40:42 0° 17° (NNE) 2,471 10.3 -24.6°
Reaches altitude 10° 12:42:48 10° 24° (NNE) 1,590 9.4 -24.3°
Maximum altitude 12:46:06 48° 100° (E) 601 7.3 -23.8°
Drops below altitude 10° 12:49:22 10° 176° (S) 1,573 9.3 -23.4°
Sets 12:51:26 0° 182° (S) 2,442 10.2 -23.1°
